Regional Weather Roundup
Issued by NWS Little Rock, AR

Home | Current Version | Previous Version | Graphics & Text | Print | Product List | Glossary On
Versions: 1 2 3 4 5 6 7 8 9 10 11 12 13 14 15 16 17 18 19 20 21 22 23 24 25 26 27 28 29 30 31 32 33
000
ASUS44 KLZK 160405
RWRLZK

WEATHER ROUNDUP FOR ARKANSAS
NATIONAL WEATHER SERVICE LITTLE ROCK AR
1000 PM CST SUN JAN 15 2017

NOTE: "FAIR" INDICATES FEW OR NO CLOUDS BELOW 12,000 FEET WITH NO
SIGNIFICANT WEATHER AND/OR OBSTRUCTIONS TO VISIBILITY.

ARZ001-003-010-029-160500-
NORTHWEST ARKANSAS

CITY           SKY/WX    TMP DP  RH WIND       PRES   REMARKS
FAYETTEVILLE   CLOUDY    53  53 100 CALM      30.04F
FORT SMITH     LGT RAIN  49  46  90 E9        30.05F
HARRISON       FOG       41  41 100 SE10      30.12F VSB 1/4
BENTONVILLE    CLOUDY   N/A N/A N/A E9        30.05S
ROGERS         CLOUDY    46  46 100 E14       30.05F
SILOAM SPGS    CLOUDY    48  46  93 E6        30.03S
HIGHFILL       CLOUDY    48  48 100 E8        30.04F
$$

ARZ004-005-016-160500-
NORTH CENTRAL ARKANSAS

CITY           SKY/WX    TMP DP  RH WIND       PRES   REMARKS
BATESVILLE     CLOUDY    43  39  87 CALM      30.19F VSB 1/4
FLIPPIN        CLOUDY    43  37  81 E7        30.14S
MTN HOME       CLOUDY    41  41 100 SE6       30.15S FOG
$$

ARZ040-041-160500-
WEST CENTRAL ARKANSAS

CITY           SKY/WX    TMP DP  RH WIND       PRES   REMARKS
MENA           CLOUDY    54  54 100 E5        30.06S
MOUNT IDA      LGT RAIN  51  49  92 E3        30.07R
$$

ARZ009-017-025-026-028-160500-
NORTHEAST ARKANSAS

CITY           SKY/WX    TMP DP  RH WIND       PRES   REMARKS
JONESBORO      FOG       44  43  96 E12       30.19F VSB 1/2
NEWPORT        FOG       43  43 100 NE9       30.19F VSB 1/2
WALNUT RIDGE   CLOUDY    43  39  87 NE9       30.20S VSB 1/2
BLYTHEVILLE    CLOUDY    48  47  96 E7        30.20F
$$

ARZ022-023-033-042-044-160500-
CENTRAL ARKANSAS

CITY           SKY/WX    TMP DP  RH WIND       PRES   REMARKS
LITTLE ROCK    FOG       44  44 100 NE8       30.15S VSB 1/4
N LITTLE ROCK    N/A     43  43  98 E9        30.17R
JACKSONVILLE   CLOUDY    44  44 100 E7        30.14S FOG
SEARCY         LGT RAIN  44  44 100 NE10      30.18F VSB 1
HOT SPRINGS    LGT RAIN  49  48  97 E5        30.12R
RUSSELLVILLE   CLOUDY    46  45  96 E9        30.12R
CLINTON        CLOUDY    45  43  93 CALM      30.15F
$$

ARZ036-160500-
EAST ARKANSAS

CITY           SKY/WX    TMP DP  RH WIND       PRES   REMARKS
WEST MEMPHIS   CLOUDY    51  51 100 E6        30.16F FOG
$$

ARZ050-053-066-070-073-160500-
SOUTHWEST ARKANSAS

CITY           SKY/WX    TMP DP  RH WIND       PRES   REMARKS
ARKADELPHIA    CLOUDY    51  49  92 NE6       30.11R
CAMDEN         CLEAR     54  50  87 E3        30.10R
TEXARKANA      CLOUDY    60  59  96 VRB6      30.03F
EL DORADO      PTCLDY    57  55  93 E7        30.08S
DE QUEEN       LGT RAIN  56  55  97 E9        30.02S
$$

ARZ056-057-069-160500-
SOUTHEAST ARKANSAS

CITY           SKY/WX    TMP DP  RH WIND       PRES   REMARKS
PINE BLUFF     FOG       48  48 100 NE6       30.14S VSB 3/4
STUTTGART      CLOUDY    46  41  81 NE10      30.15S VSB 3/4
MONTICELLO     FOG       50  49  96 CALM      30.12S VSB 3/4

$$






USA.gov is the U.S. government's official web portal to all federal, state and local government web resources and services.